Location: Williams Lake
(52.1170°N, 122.1500°W)
Time: 23:48:02
(UTC-07:00)

Daily predictions for brighter satellites

Satellite Brightness Start Highest point End
(mag) Time Altitude Azimuth Time Altitude Azimuth Time Altitude Azimuth
ATLAS 3B R/B 4.1 21:36:28 10° W 21:43:26 45° NNW 21:50:05 10° NE
Cosmos 494 Rocket 4.3 21:39:22 10° NNW 21:44:32 55° ENE 21:49:37 10° SE
Meteor 1-29 3.0 21:42:06 10° NNE 21:45:37 68° ESE 21:49:06 10° S
Resurs 01 Rocket 4.3 21:42:32 10° SW 21:45:45 19° W 21:48:59 10° NW
YAOGAN 11 4.5 21:43:01 10° SE 21:47:25 54° ENE 21:51:48 10° N
CZ-4B DEB 3.8 21:47:48 10° S 21:50:35 40° W 21:53:22 10° NNW
ISS -3.5 21:47:54 10° SW 21:51:02 45° SSE 21:54:10 10° E
Cosmos 1862 3.8 21:47:26 10° SSE 21:51:11 42° E 21:54:58 10° NNE
GEOS 3 Rocket 4.2 21:47:58 10° ESE 21:53:00 52° NE 21:58:09 10° NW
YAOGAN 6 4.0 21:49:39 10° SSW 21:53:07 38° W 21:56:35 10° NNW
Cosmos 1867 3.7 21:50:37 10° NW 21:56:07 88° SW 22:01:35 10° SE
Helios 1B rocket 2.7 21:53:51 10° NNE 21:57:58 77° WNW 22:02:05 10° SSW
Cosmos 1606 3.7 21:57:16 10° NNW 22:00:56 46° W 22:04:33 10° SSW
Cosmos 405 Rocket 4.4 21:59:23 10° NNE 22:02:10 20° ENE 22:04:57 10° ESE
Cosmos 2279 Rocket 4.4 21:56:21 10° NNW 22:02:35 70° W 22:08:46 10° S
Cosmos 2263 4.2 21:57:54 10° SSW 22:03:40 83° ESE 22:09:25 10° NNE
Terra 2.8 22:00:02 10° SE 22:04:20 35° ENE 22:08:38 10° N
H-2A R/B 2.2 22:01:50 10° SSE 22:07:11 70° ENE 22:12:26 10° N
Lacrosse 4 Rocket 2.8 22:03:10 10° NW 22:07:19 37° WSW 22:11:24 10° S
ERS-1 Rocket 3.6 22:05:50 10° S 22:10:46 56° W 22:15:45 10° NNW
Cosmos 2369 Rocket 2.6 22:05:09 10° SW 22:10:49 70° WNW 22:16:33 10° NNE
Cosmos 1437 3.0 22:08:52 10° N 22:12:01 51° ENE 22:14:50 12° SSE
Gbstr 26 Del rocket 3.0 22:08:31 10° W 22:13:24 74° SSW 22:17:27 10° ESE
Cosmos 1733 Rocket 3.1 22:11:55 10° S 22:16:10 60° E 22:20:27 10° NNE
ATLAS CENTAUR R/B 2.7 22:17:27 11° SSE 22:20:01 18° ESE 22:22:41 10° ENE
Cosmos 1408 3.6 22:17:22 10° SSW 22:21:01 50° WNW 22:24:42 10° N
ATLAS 5 CENTAUR R/B 3.6 22:15:47 10° WNW 22:21:01 33° WSW 22:26:40 10° S
Cosmos 1346 2.9 22:20:22 10° N 22:23:04 59° ENE 22:25:03 16° SSE
Cosmos 2297 Rocket 3.3 22:19:35 10° NNW 22:24:50 36° NE 22:30:02 10° ESE
DNEPR-1 R/B 3.6 22:21:40 10° SW 22:26:33 87° SE 22:30:54 10° NE
Lacrosse 5 rocket 1.0 22:25:28 10° WSW 22:29:06 85° NNW 22:32:51 10° ENE
SPOT 5 3.4 22:25:32 10° S 22:30:51 65° WSW 22:36:04 10° NNW
USA 215 3.8 22:28:10 12° SSE 22:34:00 47° SW 22:40:20 10° WNW
BREEZE-M DEB 3.9 22:22:15 10° WSW 22:34:55 66° S 22:38:28 10° E
BREEZE M DEB (TANK) 4.0 22:26:21 10° SW 22:34:56 41° SSE 22:38:07 10° E
Cosmos 1656 Rocket 3.7 22:29:47 10° S 22:35:09 58° ESE 22:40:37 10° NE
Cosmos 2344 3.7 22:28:11 10° SSW 22:35:44 64° SE 22:44:35 10° NE
Cosmos 1975 Rocket 3.7 22:32:18 10° N 22:36:36 43° ENE 22:39:51 16° SE
Sich 1 Rocket 4.1 22:33:32 13° SSE 22:37:08 43° E 22:41:19 10° NNE
ARGOS 3.9 22:34:17 10° S 22:39:28 49° W 22:44:42 10° NNW
Meteor 2-20 4.4 22:39:04 10° S 22:45:09 74° E 22:51:16 10° NNE
Cosmos 1825 4.1 22:42:37 10° SW 22:46:00 30° WNW 22:49:25 10° N
Cosmos 1378 Rocket 3.6 22:43:05 10° N 22:47:33 89° ENE 22:51:09 16° S
Cosmos 1674 Rocket 4.2 22:43:43 10° NNW 22:47:57 53° W 22:52:09 10° S
COSMOS 2455 4.0 22:43:08 10° WSW 22:48:56 47° NW 22:54:47 10° NNE
Cosmos 1633 4.3 22:49:37 15° ESE 22:50:47 18° E 22:53:15 10° NE
CARTOSAT-1 3.5 22:47:30 17° SSE 22:50:50 82° ENE 22:55:12 10° NNW
Cosmos 2251 Rocket 3.9 22:45:54 10° NNW 22:51:04 60° WSW 22:55:26 14° S
Cosmos 2082 4.3 22:46:21 10° NNW 22:51:57 51° NE 22:56:32 15° SE
Okean 3 3.6 22:49:27 10° NNW 22:53:39 72° W 22:57:02 15° S
CENTAUR R/B 2.9 22:51:12 10° SW 22:57:32 75° NW 23:04:52 10° NE
IGS 5A 3.4 22:56:46 18° SSE 22:59:46 87° WSW 23:03:58 10° NNW
DMSP B5D2-2 4.0 22:55:11 10° NNE 23:00:26 73° ESE 23:05:27 11° S
Cosmos 1655 Rocket 4.4 22:55:58 17° SSE 23:00:31 46° E 23:06:28 10° NNE
Cosmos 2026 Rocket 4.1 22:59:36 15° S 23:04:45 62° E 23:10:59 10° NNE
SPOT 1/Viking Rocket 4.5 23:00:56 10° S 23:05:53 44° W 23:10:53 10° NNW
CZ-2C R/B 4.3 23:03:13 10° NE 23:06:25 16° E 23:08:26 13° ESE
H-2A R/B 1.9 23:04:49 22° SSE 23:07:25 77° ENE 23:11:36 10° NNW
Cosmos 2227 Rocket 2.2 23:09:22 10° NNW 23:15:05 80° ENE 23:18:54 22° SE
Cosmos 1812 2.9 23:11:48 10° NNW 23:15:41 68° W 23:18:05 22° S
Meteor 1-25 Rocket 4.3 23:15:28 17° S 23:19:59 68° E 23:25:49 10° NNE
CZ-4C R/B 3.3 23:13:43 10° NW 23:20:17 56° NNE 23:27:47 10° ESE
Cosmos 2219 4.2 23:18:27 10° NW 23:23:46 40° WSW 23:27:54 16° S
Cosmos 1943 Rocket 3.7 23:19:41 10° WSW 23:24:53 38° NW 23:30:04 10° NNE
S3M 4.0 23:18:44 10° N 23:24:53 74° ENE 23:29:00 22° SSE
Cosmos 407 Rocket 4.3 23:21:05 10° NNW 23:26:12 45° NE 23:29:48 19° ESE
ISS -4.0 23:24:08 10° W 23:27:23 84° S 23:30:00 15° E
Cosmos 1908 Rocket 4.1 23:26:54 11° SSW 23:31:04 57° WNW 23:35:27 10° N
GEOS 3 Rocket 4.2 23:28:05 22° S 23:31:08 46° SW 23:36:12 10° NW
BREEZE-M (TANK) 3.9 23:15:27 10° W 23:31:29 73° S 23:35:14 12° ESE
Cosmos 1092 Rocket 4.5 23:26:46 10° SSW 23:32:49 58° WNW 23:38:53 10° N
Cosmos 405 Rocket 3.6 23:34:55 10° NNW 23:38:26 41° W 23:40:23 22° SSW
CZ-4B R/B 3.6 23:35:41 10° NNE 23:40:36 57° ESE 23:43:07 27° S
Cosmos 1553 Rocket 4.1 23:35:30 10° NNW 23:41:55 82° W 23:46:06 23° S
Terra 2.9 23:38:41 16° SSW 23:42:03 38° W 23:46:31 10° NNW
Cosmos 1980 Rocket 4.0 23:43:36 13° ESE 23:44:49 14° E 23:47:38 10° ENE
Okean 2 Rocket 3.0 23:43:45 25° S 23:46:19 90° WNW 23:50:49 10° N
Cosmos 2369 4.2 23:44:06 26° SSE 23:46:42 41° ESE 23:52:00 10° NE
H-2A R/B 4.0 23:42:59 10° SW 23:47:05 22° W 23:51:09 10° NW
Meteor 2-4 Rocket 3.8 23:45:09 10° N 23:50:28 60° ENE 23:53:21 27° SE
APEX 4.2 23:47:12 10° NW 23:51:29 38° WSW 23:52:56 27° SSW
deb Chang Zheng 4 3.6 23:47:07 10° NNE 23:51:35 89° ESE 23:54:08 25° SSW
Cosmos 1536 4.0 23:50:55 25° ESE 23:51:58 29° E 23:55:30 10° NNE
Okean 1 Rocket 4.4 23:52:40 22° ESE 23:53:54 25° E 23:57:28 10° NNE
Okean 1 4.0 23:51:35 10° NNW 23:55:26 47° W 23:57:20 26° SSW
